DW5364 Weather Reports


Display with metric or nautical units.
time (UTC)temp
F
wind
direction
speed
MPH
gust
MPH
rain 1hr
in
rain 24hr
in
rain mn
in
humidity
%
barometer
mb
20210926014718 56 241 0.0 0.0 0.00 0.00 0.00 1 1016.1
20210926013158 56 241 0.0 0.0 0.00 0.00 0.00 1 1016.0
20210926011659 57 241 0.0 0.0 0.00 0.00 0.00 1 1015.8
20210926010105 57 241 0.0 0.0 0.00 0.00 0.00 1 1015.7
20210926004632 58 241 0.0 0.0 0.00 0.00 0.00 1 1015.5
20210926003048 59 241 0.0 0.0 0.00 0.00 0.00 1 1015.4
20210926001542 60 241 0.0 0.0 0.00 0.00 0.00 5 1015.2
20210926000055 61 241 0.0 0.0 0.00 0.00 0.00 20 1015.0
20210925234549 62 241 0.0 0.0 0.00 0.00 0.00 26 1015.0
20210925233054 63 241 0.0 0.0 0.00 0.00 0.00 35 1014.9
20210925231550 65 241 0.0 0.0 0.00 0.00 0.00 45 1014.8
20210925230025 66 241 0.0 0.0 0.00 0.00 0.00 58 1014.8
20210925224533 67 241 0.0 0.0 0.00 0.00 0.00 58 1014.7
20210925223016 69 241 0.0 0.0 0.00 0.00 0.00 55 1014.6
20210925221512 70 241 0.0 0.0 0.00 0.00 0.00 53 1014.5
20210925220135 72 241 0.0 0.0 0.00 0.00 0.00 54 1014.5
20210925214605 72 241 0.0 0.0 0.00 0.00 0.00 49 1014.5
20210925213151 73 241 0.0 2.0 0.00 0.00 0.00 48 1014.6
20210925211615 73 241 0.0 8.0 0.00 0.00 0.00 50 1014.8
20210925210142 74 238 0.0 3.0 0.00 0.00 0.00 49 1014.7
20210925204601 75 234 0.0 0.0 0.00 0.00 0.00 48 1014.6
20210925203101 75 234 0.0 2.0 0.00 0.00 0.00 47 1014.8
20210925201608 74 228 0.0 3.0 0.00 0.00 0.00 51 1014.9
20210925200101 74 228 0.0 1.0 0.00 0.00 0.00 51 1015.0
20210925194545 77 228 0.0 2.0 0.00 0.00 0.00 49 1015.2
20210925193026 77 228 0.0 2.0 0.00 0.00 0.00 50 1015.1
20210925191514 75 227 0.0 3.0 0.00 0.00 0.00 53 1015.2
20210925190007 75 227 0.0 0.0 0.00 0.00 0.00 51 1015.4
20210925184502 76 227 0.0 0.0 0.00 0.00 0.00 52 1015.6
20210925183245 76 227 0.0 5.0 0.00 0.00 0.00 50 1015.8
20210925181614 75 227 0.0 5.0 0.00 0.00 0.00 50 1016.0
20210925180129 75 219 0.0 5.0 0.00 0.00 0.00 50 1016.0
20210925174615 75 207 0.0 5.0 0.00 0.00 0.00 51 1016.6
20210925173106 75 202 0.0 2.0 0.00 0.00 0.00 52 1016.6
20210925171607 75 202 0.0 4.0 0.00 0.00 0.00 52 1016.8
20210925170132 74 200 0.0 3.0 0.00 0.00 0.00 51 1016.9
20210925164549 73 194 0.0 5.0 0.00 0.00 0.00 54 1017.4
20210925163110 73 200 0.0 4.0 0.00 0.00 0.00 51 1017.5
20210925161540 72 203 0.0 8.0 0.00 0.00 0.00 52 1017.8
20210925160024 71 223 0.0 4.0 0.00 0.00 0.00 54 1017.9
20210925154533 71 226 0.0 7.0 0.00 0.00 0.00 52 1018.2
20210925153034 70 232 0.0 1.0 0.00 0.00 0.00 52 1018.3
20210925150135 68 238 0.0 0.0 0.00 0.00 0.00 51 1018.6
20210925144619 67 238 0.0 0.0 0.00 0.00 0.00 44 1018.8
20210925143128 65 239 0.0 0.0 0.00 0.00 0.00 33 1019.1
20210925141626 64 239 0.0 1.0 0.00 0.00 0.00 21 1018.8
20210925140051 61 240 0.0 0.0 0.00 0.00 0.00 11 1018.7
20210925134656 60 240 0.0 0.0 0.00 0.00 0.00 1 1018.8
20210925133138 56 240 0.0 0.0 0.00 0.00 0.00 1 1018.9
20210925131537 54 240 0.0 0.0 0.00 0.00 0.00 1 1018.9
20210925130035 52 240 0.0 0.0 0.00 0.00 0.00 1 1019.0
20210925124557 50 238 0.0 0.0 0.00 0.00 0.00 1 1018.9
20210925123046 49 238 0.0 0.0 0.00 0.00 0.00 1 1018.8
20210925121507 46 302 0.0 0.0 0.00 0.00 0.00 1 1018.8
20210925120004 46 302 0.0 0.0 0.00 0.00 0.00 1 1018.6
20210925114648 45 302 0.0 0.0 0.00 0.00 0.00 1 1018.5
20210925113157 45 302 0.0 0.0 0.00 0.00 0.00 1 1018.5
20210925111627 45 302 0.0 0.0 0.00 0.00 0.00 1 1018.3
20210925110144 45 302 0.0 0.0 0.00 0.00 0.00 1 1018.3
20210925104627 45 302 0.0 0.0 0.00 0.00 0.00 1 1018.3
20210925103107 45 302 0.0 0.0 0.00 0.00 0.00 1 1017.9
20210925101551 46 302 0.0 0.0 0.00 0.00 0.00 1 1017.8
20210925100048 46 302 0.0 0.0 0.00 0.00 0.00 1 1017.9
20210925094530 46 302 0.0 0.0 0.00 0.00 0.00 1 1017.9
20210925093025 46 302 0.0 0.0 0.00 0.00 0.00 1 1017.8
20210925091521 46 302 0.0 0.0 0.00 0.00 0.00 1 1017.7
20210925090017 46 302 0.0 0.0 0.00 0.00 0.00 1 1017.6
20210925084509 47 302 0.0 0.0 0.00 0.00 0.00 1 1017.5
20210925083002 47 302 0.0 0.0 0.00 0.00 0.00 1 1017.7
20210925081640 47 302 0.0 0.0 0.00 0.00 0.00 1 1017.5
20210925080245 47 302 0.0 0.0 0.00 0.00 0.00 1 1017.8
20210925074635 47 302 0.0 0.0 0.00 0.00 0.00 1 1017.8
20210925073139 48 302 0.0 0.0 0.00 0.00 0.00 1 1017.8
20210925071607 48 302 0.0 0.0 0.00 0.00 0.00 1 1017.9
20210925070055 48 302 0.0 0.0 0.00 0.00 0.00 1 1017.9
20210925064646 48 302 0.0 0.0 0.00 0.00 0.00 1 1018.1
20210925063119 48 302 0.0 0.0 0.00 0.00 0.00 1 1018.1
20210925061541 49 302 0.0 0.0 0.00 0.00 0.00 1 1018.2
20210925060116 49 302 0.0 0.0 0.00 0.00 0.00 1 1018.3
20210925054520 49 302 0.0 0.0 0.00 0.00 0.00 1 1018.4
20210925053019 49 302 0.0 0.0 0.00 0.00 0.00 1 1018.3
20210925051505 49 302 0.0 0.0 0.00 0.00 0.00 1 1018.3
20210925050001 50 302 0.0 0.0 0.00 0.00 0.00 1 1018.4
20210925044711 50 302 0.0 0.0 0.00 0.00 0.00 1 1018.5
20210925043059 50 302 0.0 0.0 0.00 0.00 0.00 1 1018.4
20210925041604 50 302 0.0 0.0 0.00 0.00 0.00 1 1018.5
20210925040101 50 302 0.0 0.0 0.00 0.00 0.00 1 1018.4
20210925034622 51 302 0.0 0.0 0.00 0.00 0.00 1 1018.3
20210925033147 51 302 0.0 0.0 0.00 0.00 0.00 1 1018.4
20210925031643 51 302 0.0 0.0 0.00 0.00 0.00 1 1018.4
20210925030114 51 302 0.0 0.0 0.00 0.00 0.00 1 1018.2
20210925024609 52 302 0.0 0.0 0.00 0.00 0.00 1 1018.4
20210925023049 52 302 0.0 0.0 0.00 0.00 0.00 1 1018.4
20210925021516 52 302 0.0 0.0 0.00 0.00 0.00 1 1018.4
20210925020015 53 302 0.0 0.0 0.00 0.00 0.00 1 1018.3